"startDT [UTC]","vpos","CH4 [ppm]","stdev(CH4) [ppm]","CO2 [ppm]","stdev(CO2) [ppm]","H2O [ppm]","stdev(H2O)","p_LGR [torr]","T_LGR [C]","mt1_LGR [us]","mt2_LGR [us]","T_ECpre [C]","T_EC1 [C]","T_EC2 [C]","p_inlet [hPa]","p_in [hPa]","p_out [hPa]","T_inlet [C]","RH_inlet [%]","dwpt_inlet [C]","T_vent [C]","RH_vent [%]","dwpt_vent [C]","flow_vent [l min-1]","flow_inlet [l min-1]","dwpt_sample [C]","T_room [C]"
2012-11-15 00:00:00,0.0,1.9127,0.0010,399.85,0.21,202.9,29.7,138.04,31.60,24.66,36.42,0.04,-272.75,-272.75,-48,567,-937,25.3,3.5,-21.3,25.6,3.5,-21.0,5.73,2.41,-24.1,30.6
2012-11-15 00:01:00,0.0,1.9126,0.0009,399.83,0.21,197.0,25.7,138.04,31.60,24.66,36.42,0.04,-272.75,-272.75,-47,567,-936,25.3,3.5,-21.2,25.6,3.5,-20.9,5.73,2.35,-24.1,30.6
2012-11-15 00:02:00,0.0,1.9124,0.0009,399.77,0.17,207.0,33.5,138.04,31.59,24.66,36.43,0.04,-272.74,-272.75,-47,567,-937,25.3,3.5,-21.2,25.6,3.5,-20.9,5.73,2.29,-24.1,30.6
2012-11-15 00:03:00,0.0,1.9131,0.0010,399.84,0.20,201.7,33.2,138.04,31.60,24.65,36.42,0.04,-272.74,-272.75,-48,567,-937,25.3,3.5,-21.2,25.6,3.5,-20.9,5.73,2.39,-24.1,30.6
2012-11-15 00:04:00,0.0,1.9128,0.0010,399.89,0.20,194.3,27.3,138.04,31.60,24.65,36.42,0.04,-272.75,-272.75,-48,567,-937,25.3,3.5,-21.2,25.6,3.5,-20.9,5.73,2.38,-24.1,30.6
2012-11-15 00:05:00,0.0,1.9125,0.0010,399.90,0.22,201.9,28.7,138.04,31.60,24.65,36.42,0.04,-272.75,-272.75,-47,567,-936,25.3,3.5,-21.3,25.6,3.5,-21.0,5.73,2.29,-24.1,30.6
2012-11-15 00:06:00,0.0,1.9126,0.0008,399.85,0.19,206.9,32.3,138.04,31.60,24.66,36.42,0.04,-272.75,-272.75,-47,567,-937,25.3,3.5,-21.3,25.6,3.5,-20.9,5.73,2.37,-24.1,30.6
2012-11-15 00:07:00,0.0,1.9132,0.0009,399.84,0.24,203.3,28.7,138.04,31.60,24.65,36.42,0.04,-272.75,-272.75,-48,567,-936,25.3,3.5,-21.2,25.6,3.5,-21.0,5.73,2.40,-24.0,30.7
2012-11-15 00:08:00,0.0,1.9130,0.0009,399.71,0.19,212.1,34.1,138.04,31.60,24.66,36.44,0.04,-272.75,-272.75,-48,567,-936,25.3,3.5,-21.3,25.6,3.5,-20.9,5.73,2.29,-24.0,30.7
2012-11-15 00:09:00,0.0,1.9125,0.0012,399.81,0.23,216.3,33.5,138.04,31.60,24.66,36.42,0.04,-272.75,-272.75,-47,567,-937,25.3,3.5,-21.3,25.6,3.5,-20.9,5.73,2.36,-24.0,30.7
2012-11-15 00:10:00,0.0,1.9130,0.0009,399.78,0.20,212.5,32.7,138.04,31.60,24.65,36.43,0.04,-272.74,-272.75,-47,567,-937,25.4,3.5,-21.2,25.6,3.5,-20.9,5.73,2.40,-24.0,30.7
2012-11-15 00:11:00,0.0,1.9126,0.0010,399.79,0.17,214.6,31.3,138.04,31.60,24.66,36.43,0.04,-272.75,-272.75,-48,567,-937,25.4,3.5,-21.2,25.7,3.5,-20.9,5.73,2.28,-24.0,30.6
2012-11-15 00:12:00,0.0,1.9130,0.0010,399.88,0.20,217.3,33.0,138.04,31.61,24.65,36.42,0.04,-272.75,-272.74,-47,567,-937,25.4,3.5,-21.2,25.7,3.5,-20.9,5.73,2.36,-23.9,30.7
2012-11-15 00:13:00,0.0,1.9133,0.0010,399.88,0.24,223.0,26.4,138.04,31.61,24.65,36.42,0.04,-272.75,-272.75,-47,567,-936,25.5,3.5,-21.2,25.7,3.5,-20.9,5.73,2.40,-23.9,30.7
2012-11-15 00:14:00,0.0,1.9135,0.0011,399.75,0.17,216.3,26.8,138.04,31.61,24.65,36.43,0.04,-272.75,-272.75,-48,567,-936,25.5,3.4,-21.3,25.7,3.5,-20.9,5.73,2.29,-23.9,30.7
2012-11-15 00:15:00,0.0,1.9137,0.0010,399.84,0.20,211.2,33.3,138.04,31.61,24.65,36.42,0.04,-272.74,-272.75,-48,567,-937,25.5,3.4,-21.2,25.7,3.5,-20.9,5.73,2.36,-23.9,30.8
2012-11-15 00:16:00,0.0,1.9133,0.0010,399.75,0.23,220.4,37.1,138.04,31.62,24.65,36.43,0.04,-272.74,-272.75,-47,567,-937,25.5,3.4,-21.2,25.7,3.5,-20.9,5.73,2.40,-23.9,30.7
2012-11-15 00:17:00,0.0,1.9136,0.0009,399.68,0.21,219.7,31.8,138.04,31.62,24.65,36.43,0.04,-272.75,-272.75,-47,567,-936,25.5,3.4,-21.2,25.7,3.5,-20.9,5.73,2.30,-23.9,30.7
2012-11-15 00:18:00,0.0,1.9133,0.0010,399.76,0.21,221.9,30.1,138.04,31.62,24.65,36.43,0.04,-272.75,-272.75,-48,567,-937,25.5,3.4,-21.3,25.7,3.5,-20.9,5.73,2.34,-23.9,30.7
2012-11-15 00:19:00,0.0,1.9129,0.0012,399.77,0.22,220.2,33.5,138.04,31.62,24.66,36.42,0.04,-272.74,-272.75,-48,567,-937,25.4,3.5,-21.2,25.7,3.5,-20.9,5.73,2.41,-23.9,30.6
2012-11-15 00:20:00,0.0,1.9134,0.0010,399.81,0.18,209.5,31.5,138.04,31.62,24.65,36.42,0.04,-272.75,-272.75,-47,567,-936,25.4,3.5,-21.2,25.7,3.5,-20.9,5.73,2.34,-23.9,30.6
2012-11-15 00:21:00,0.0,1.9131,0.0009,399.76,0.20,214.4,33.0,138.04,31.62,24.65,36.43,0.04,-272.75,-272.75,-47,567,-937,25.4,3.5,-21.2,25.6,3.5,-21.0,5.73,2.30,-24.0,30.6
2012-11-15 00:22:00,0.0,1.9131,0.0009,399.81,0.18,211.4,34.6,138.04,31.62,24.65,36.42,0.04,-272.74,-272.75,-48,567,-936,25.3,3.5,-21.3,25.6,3.5,-21.0,5.73,2.39,-24.0,30.6
2012-11-15 00:23:00,0.0,1.9126,0.0008,399.65,0.23,205.9,30.2,138.04,31.61,24.65,36.43,0.04,-272.75,-272.74,-48,567,-936,25.3,3.5,-21.3,25.6,3.5,-21.0,5.73,2.40,-24.0,30.6
2012-11-15 00:24:00,0.0,1.9132,0.0010,399.83,0.21,207.8,28.2,138.04,31.61,24.65,36.42,0.04,-272.75,-272.75,-47,567,-936,25.2,3.5,-21.3,25.6,3.5,-21.0,5.73,2.30,-24.0,30.6
2012-11-15 00:25:00,0.0,1.9133,0.0011,399.83,0.21,210.2,35.7,138.04,31.61,24.66,36.43,0.04,-272.75,-272.75,-47,567,-936,25.3,3.5,-21.3,25.6,3.5,-21.0,5.73,2.34,-24.0,30.6
2012-11-15 00:26:00,0.0,1.9129,0.0009,399.87,0.22,211.2,31.0,138.04,31.61,24.65,36.42,0.04,-272.75,-272.75,-47,567,-936,25.3,3.5,-21.3,25.6,3.5,-21.0,5.73,2.41,-24.0,30.6
2012-11-15 00:27:00,0.0,1.9126,0.0008,399.77,0.20,209.0,34.0,138.04,31.61,24.65,36.43,0.04,-272.75,-272.75,-48,567,-936,25.3,3.5,-21.4,25.6,3.5,-21.0,5.73,2.31,-24.0,30.6
2012-11-15 00:28:00,0.0,1.9126,0.0008,399.74,0.19,206.1,33.9,138.04,31.61,24.66,36.43,0.04,-272.75,-272.75,-47,567,-936,25.3,3.4,-21.4,25.6,3.5,-21.0,5.73,2.32,-23.9,30.7
2012-11-15 00:29:00,0.0,1.9127,0.0010,399.80,0.23,220.6,29.8,138.04,31.61,24.65,36.42,0.04,-272.75,-272.75,-47,567,-936,25.3,3.5,-21.3,25.6,3.5,-20.9,5.73,2.42,-23.9,30.7
2012-11-15 00:30:00,0.0,1.9116,0.0010,399.78,0.21,219.0,31.0,138.04,31.61,24.66,36.43,0.04,-272.74,-272.75,-48,567,-936,25.3,3.4,-21.4,25.6,3.5,-21.0,5.73,2.31,-23.9,30.7
2012-11-15 00:31:00,0.0,1.9128,0.0009,399.78,0.23,220.9,28.0,138.04,31.61,24.65,36.43,0.04,-272.75,-272.75,-48,567,-936,25.4,3.4,-21.3,25.6,3.5,-21.0,5.73,2.31,-23.9,30.7
2012-11-15 00:32:00,0.0,1.9124,0.0010,399.81,0.24,227.1,32.1,138.04,31.61,24.65,36.42,0.04,-272.75,-272.75,-47,567,-936,25.4,3.5,-21.3,25.6,3.5,-21.0,5.73,2.42,-23.8,30.7
2012-11-15 00:33:00,0.0,1.9120,0.0010,399.74,0.22,217.5,31.0,138.04,31.61,24.65,36.43,0.04,-272.75,-272.75,-47,567,-936,25.4,3.4,-21.3,25.7,3.5,-21.0,5.73,2.31,-23.8,30.7
2012-11-15 00:34:00,0.0,1.9122,0.0010,399.74,0.25,225.6,26.8,138.04,31.61,24.66,36.43,0.04,-272.75,-272.75,-48,567,-936,25.5,3.4,-21.3,25.7,3.5,-21.0,5.73,2.32,-23.8,30.7
2012-11-15 00:35:00,0.0,1.9125,0.0009,399.74,0.29,230.9,31.9,138.04,31.62,24.66,36.43,0.04,-272.75,-272.75,-48,567,-936,25.5,3.4,-21.3,25.7,3.5,-21.0,5.73,2.41,-23.8,30.8
2012-11-15 00:36:00,0.0,1.9132,0.0011,399.83,0.21,228.1,29.2,138.04,31.62,24.65,36.42,0.04,-272.75,-272.75,-47,567,-936,25.5,3.4,-21.3,25.7,3.5,-21.0,5.73,2.31,-23.8,30.8
2012-11-15 00:37:00,0.0,1.9126,0.0009,399.77,0.19,224.4,30.0,138.04,31.62,24.65,36.43,0.04,-272.75,-272.75,-48,567,-936,25.5,3.4,-21.3,25.7,3.5,-21.0,5.73,2.32,-23.8,30.8
2012-11-15 00:38:00,0.0,1.9130,0.0011,399.89,0.19,225.6,28.5,138.04,31.62,24.65,36.42,0.04,-272.75,-272.75,-48,567,-936,25.5,3.4,-21.3,25.7,3.5,-21.0,5.73,2.42,-23.8,30.7
2012-11-15 00:39:00,0.0,1.9136,0.0009,399.80,0.19,229.9,30.8,138.04,31.63,24.65,36.43,0.04,-272.75,-272.75,-47,567,-936,25.5,3.4,-21.3,25.7,3.5,-21.0,5.73,2.32,-23.8,30.7
2012-11-15 00:40:00,0.0,1.9146,0.0011,399.84,0.22,217.2,34.4,138.04,31.63,24.66,36.43,0.04,-272.75,-272.75,-47,567,-936,25.5,3.4,-21.3,25.7,3.5,-21.0,5.73,2.31,-23.8,30.6
2012-11-15 00:41:00,0.0,1.9137,0.0008,399.85,0.20,208.5,29.5,138.04,31.62,24.66,36.43,0.04,-272.75,-272.75,-48,567,-937,25.4,3.4,-21.3,25.7,3.5,-21.0,5.73,2.40,-23.8,30.6
2012-11-15 00:42:00,0.0,1.9146,0.0009,399.78,0.21,217.9,28.2,138.04,31.62,24.65,36.43,0.04,-272.75,-272.75,-48,567,-936,25.4,3.5,-21.3,25.6,3.5,-21.0,5.73,2.37,-23.9,30.6
2012-11-15 00:43:00,0.0,1.9137,0.0009,399.85,0.21,221.6,33.1,138.04,31.62,24.65,36.42,0.04,-272.74,-272.75,-47,567,-936,25.4,3.5,-21.3,25.6,3.5,-20.9,5.73,2.29,-23.9,30.6
2012-11-15 00:44:00,0.0,1.9141,0.0009,399.76,0.24,209.5,31.9,138.04,31.62,24.65,36.43,0.04,-272.75,-272.75,-47,567,-936,25.4,3.5,-21.3,25.6,3.5,-20.9,5.73,2.37,-23.9,30.6
2012-11-15 00:45:00,0.0,1.9130,0.0011,399.80,0.22,222.6,33.4,138.04,31.62,24.66,36.43,0.04,-272.75,-272.75,-47,567,-936,25.4,3.4,-21.3,25.6,3.5,-20.9,5.73,2.39,-23.9,30.6
2012-11-15 00:46:00,0.0,1.9134,0.0009,399.79,0.22,216.5,34.8,138.04,31.62,24.65,36.42,0.04,-272.75,-272.75,-48,567,-936,25.4,3.5,-21.3,25.7,3.5,-20.9,5.73,2.29,-23.8,30.7
2012-11-15 00:47:00,0.0,1.9129,0.0010,399.78,0.17,218.5,33.3,138.04,31.62,24.65,36.43,0.04,-272.75,-272.75,-47,567,-936,25.4,3.4,-21.3,25.6,3.5,-20.9,5.73,2.36,-23.8,30.7
2012-11-15 00:48:00,0.0,1.9126,0.0011,399.88,0.24,225.4,29.8,138.04,31.62,24.66,36.42,0.04,-272.75,-272.75,-47,567,-936,25.4,3.5,-21.3,25.7,3.5,-20.9,5.73,2.40,-23.8,30.7
2012-11-15 00:49:00,0.0,1.9140,0.0011,399.78,0.20,223.1,32.2,138.04,31.62,24.65,36.43,0.04,-272.75,-272.75,-48,567,-936,25.5,3.4,-21.3,25.7,3.5,-20.9,5.73,2.28,-23.8,30.7
2012-11-15 00:50:00,0.0,1.9135,0.0010,399.94,0.17,225.1,29.0,138.04,31.62,24.66,36.42,0.04,-272.75,-272.75,-48,567,-936,25.5,3.5,-21.2,25.7,3.5,-20.9,5.73,2.36,-23.8,30.7
2012-11-15 00:51:00,0.0,1.9134,0.0009,399.90,0.20,225.5,33.9,138.04,31.62,24.66,36.42,0.04,-272.75,-272.75,-47,567,-936,25.5,3.4,-21.3,25.7,3.5,-20.9,5.73,2.40,-23.8,30.7
2012-11-15 00:52:00,0.0,1.9139,0.0008,399.91,0.21,222.7,27.1,138.04,31.62,24.65,36.41,0.04,-272.75,-272.75,-47,567,-936,25.5,3.4,-21.2,25.7,3.5,-20.9,5.73,2.29,-23.8,30.7
2012-11-15 00:53:00,0.0,1.9147,0.0012,399.87,0.21,221.1,34.1,138.04,31.63,24.66,36.43,0.04,-272.75,-272.75,-48,567,-936,25.5,3.4,-21.2,25.7,3.5,-20.9,5.73,2.35,-23.8,30.7
2012-11-15 00:54:00,0.0,1.9136,0.0010,399.84,0.20,225.1,33.0,138.04,31.63,24.66,36.43,0.04,-272.75,-272.75,-48,567,-937,25.5,3.4,-21.3,25.7,3.5,-20.9,5.73,2.40,-23.8,30.7
2012-11-15 00:55:00,0.0,1.9140,0.0009,399.84,0.19,224.1,27.7,138.04,31.63,24.66,36.43,0.04,-272.75,-272.75,-47,567,-936,25.4,3.4,-21.3,25.7,3.5,-20.9,5.73,2.32,-23.8,30.7
2012-11-15 00:56:00,0.0,1.9156,0.0014,399.98,0.20,220.9,25.3,138.04,31.63,24.66,36.43,0.04,-272.74,-272.75,-47,567,-936,25.4,3.5,-21.3,25.6,3.5,-20.9,5.73,2.31,-23.9,30.7
2012-11-15 00:57:00,0.0,1.9174,0.0009,400.13,0.16,216.9,34.8,138.04,31.63,24.66,36.43,0.04,-272.74,-272.75,-48,567,-936,25.3,3.4,-21.4,25.6,3.5,-20.9,5.73,2.40,-23.9,30.6
2012-11-15 00:58:00,0.0,1.9178,0.0010,400.22,0.21,216.7,33.9,138.04,31.63,24.65,36.42,0.04,-272.75,-272.75,-48,567,-936,25.3,3.5,-21.3,25.6,3.5,-21.0,5.73,2.37,-23.9,30.6
2012-11-15 00:59:00,0.0,1.9182,0.0009,400.24,0.24,217.3,29.2,138.04,31.63,24.66,36.43,0.04,-272.75,-272.75,-47,567,-936,25.3,3.5,-21.3,25.6,3.5,-21.0,5.73,2.29,-23.9,30.6
2012-11-15 01:00:00,0.0,1.9187,0.0011,400.39,0.20,213.1,31.9,138.04,31.62,24.65,36.42,0.04,-272.74,-272.75,-47,567,-936,25.2,3.5,-21.3,25.6,3.5,-21.0,5.73,2.36,-23.9,30.6
2012-11-15 01:01:00,0.0,1.9180,0.0009,400.33,0.19,216.2,26.3,138.04,31.62,24.65,36.42,0.04,-272.75,-272.75,-47,567,-936,25.2,3.5,-21.4,25.6,3.5,-21.0,5.73,2.41,-24.0,30.6
2012-11-15 01:02:00,0.0,1.9178,0.0011,400.14,0.22,212.2,30.3,138.04,31.62,24.65,36.43,0.04,-272.75,-272.75,-48,567,-936,25.2,3.4,-21.4,25.5,3.5,-21.1,5.73,2.30,-23.9,30.6
2012-11-15 01:03:00,0.0,1.9178,0.0012,400.24,0.23,212.8,31.2,138.04,31.62,24.65,36.42,0.04,-272.75,-272.75,-47,567,-936,25.3,3.4,-21.4,25.5,3.5,-21.1,5.73,2.32,-23.9,30.6
2012-11-15 01:04:00,0.0,1.9176,0.0010,400.17,0.22,216.9,36.4,138.04,31.62,24.66,36.43,0.04,-272.75,-272.75,-47,567,-936,25.3,3.4,-21.4,25.6,3.5,-21.1,5.73,2.41,-23.9,30.6
2012-11-15 01:05:00,0.0,1.9179,0.0009,400.29,0.20,221.9,27.9,138.04,31.62,24.65,36.43,0.04,-272.75,-272.75,-47,567,-936,25.3,3.4,-21.5,25.6,3.5,-21.1,5.73,2.32,-23.9,30.7
2012-11-15 01:06:00,0.0,1.9177,0.0009,400.30,0.23,220.4,35.7,138.04,31.62,24.66,36.43,0.04,-272.75,-272.74,-48,567,-936,25.3,3.4,-21.5,25.6,3.5,-21.1,5.73,2.31,-23.9,30.6
2012-11-15 01:07:00,0.0,1.9181,0.0008,400.30,0.19,217.7,32.2,138.04,31.62,24.65,36.42,0.04,-272.75,-272.75,-47,567,-936,25.3,3.4,-21.4,25.6,3.5,-21.1,5.73,2.41,-23.8,30.7
2012-11-15 01:08:00,0.0,1.9173,0.0009,400.27,0.18,229.4,36.6,138.04,31.62,24.66,36.42,0.04,-272.75,-272.75,-47,567,-936,25.3,3.4,-21.4,25.6,3.5,-21.1,5.73,2.33,-23.8,30.7
2012-11-15 01:09:00,0.0,1.9182,0.0010,400.37,0.20,224.8,33.3,138.04,31.62,24.66,36.42,0.04,-272.75,-272.75,-48,567,-936,25.4,3.4,-21.4,25.6,3.5,-21.1,5.73,2.30,-23.8,30.7
2012-11-15 01:10:00,0.0,1.9190,0.0009,400.27,0.23,224.0,32.8,138.04,31.63,24.66,36.43,0.04,-272.75,-272.75,-48,567,-936,25.4,3.4,-21.4,25.6,3.5,-21.0,5.73,2.41,-23.8,30.7
2012-11-15 01:11:00,0.0,1.9192,0.0009,400.39,0.24,233.3,32.3,138.04,31.63,24.66,36.42,0.04,-272.75,-272.75,-47,567,-936,25.4,3.4,-21.3,25.6,3.5,-21.1,5.73,2.35,-23.8,30.6
2012-11-15 01:12:00,0.0,1.9197,0.0010,400.38,0.20,222.5,34.2,138.04,31.63,24.65,36.43,0.04,-272.75,-272.75,-47,567,-936,25.3,3.4,-21.3,25.6,3.5,-21.0,5.73,2.29,-23.8,30.6
2012-11-15 01:13:00,0.0,1.9199,0.0010,400.33,0.19,225.9,34.4,138.04,31.63,24.65,36.43,0.04,-272.75,-272.75,-47,567,-936,25.3,3.4,-21.4,25.6,3.5,-21.0,5.73,2.38,-23.9,30.6
2012-11-15 01:14:00,0.0,1.9195,0.0010,400.31,0.24,226.7,27.4,138.04,31.63,24.65,36.43,0.04,-272.75,-272.75,-48,567,-936,25.3,3.4,-21.4,25.6,3.5,-21.0,5.73,2.40,-23.9,30.6
2012-11-15 01:15:00,0.0,1.9198,0.0009,400.32,0.22,218.3,30.7,138.04,31.63,24.65,36.43,0.04,-272.75,-272.75,-47,567,-936,25.3,3.5,-21.3,25.6,3.5,-21.0,5.73,2.30,-23.9,30.6
2012-11-15 01:16:00,0.0,1.9198,0.0011,400.27,0.23,214.6,32.1,138.04,31.63,24.65,36.42,0.04,-272.75,-272.75,-47,567,-936,25.3,3.5,-21.3,25.6,3.5,-21.0,5.73,2.33,-23.9,30.5
2012-11-15 01:17:00,0.0,1.9196,0.0008,400.25,0.20,217.5,26.6,138.04,31.63,24.66,36.43,0.04,-272.75,-272.74,-47,567,-936,25.2,3.5,-21.3,25.5,3.5,-21.0,5.73,2.41,-23.9,30.5
2012-11-15 01:18:00,0.0,1.9194,0.0009,400.38,0.21,212.8,32.3,138.04,31.62,24.66,36.41,0.04,-272.75,-272.75,-48,567,-936,25.2,3.5,-21.4,25.5,3.5,-21.0,5.73,2.35,-23.9,30.5
2012-11-15 01:19:00,0.0,1.9197,0.0010,400.37,0.19,217.2,27.7,138.04,31.62,24.65,36.42,0.04,-272.75,-272.75,-47,566,-936,25.2,3.5,-21.3,25.5,3.5,-21.0,5.73,2.29,-23.7,30.5
2012-11-15 01:20:00,0.0,1.9197,0.0010,400.28,0.19,213.1,32.7,138.04,31.62,24.66,36.42,0.04,-272.75,-272.74,-47,566,-936,25.2,3.5,-21.2,25.5,3.5,-21.1,5.73,2.38,-23.6,30.6
2012-11-15 01:21:00,0.0,1.9195,0.0009,400.27,0.21,216.5,29.0,138.04,31.62,24.66,36.43,0.04,-272.75,-272.75,-47,566,-936,25.2,3.5,-21.4,25.5,3.5,-21.0,5.73,2.40,-23.6,30.6
2012-11-15 01:22:00,0.0,1.9199,0.0009,400.23,0.23,221.5,35.3,138.04,31.62,24.65,36.43,0.04,-272.75,-272.75,-48,566,-936,25.2,3.5,-21.3,25.5,3.5,-21.0,5.73,2.29,-23.6,30.6
2012-11-15 01:23:00,0.0,1.9194,0.0010,400.25,0.23,224.9,28.7,138.04,31.62,24.66,36.43,0.04,-272.74,-272.74,-47,566,-936,25.2,3.5,-21.4,25.5,3.5,-21.0,5.73,2.35,-23.6,30.6
2012-11-15 01:24:00,0.0,1.9198,0.0009,400.24,0.20,220.9,38.9,138.04,31.62,24.65,36.43,0.04,-272.75,-272.75,-47,566,-936,25.2,3.5,-21.3,25.5,3.5,-21.0,5.73,2.40,-23.5,30.6
2012-11-15 01:25:00,0.0,1.9197,0.0010,400.37,0.22,224.1,30.8,138.04,31.62,24.66,36.42,0.04,-272.75,-272.75,-47,566,-936,25.3,3.5,-21.3,25.6,3.5,-21.0,5.73,2.29,-23.5,30.6
2012-11-15 01:26:00,0.0,1.9203,0.0010,400.28,0.24,220.6,36.0,138.04,31.62,24.65,36.43,0.04,-272.75,-272.75,-48,566,-936,25.3,3.5,-21.4,25.6,3.5,-21.0,5.73,2.34,-23.5,30.6
2012-11-15 01:27:00,0.0,1.9200,0.0010,400.29,0.19,220.5,31.5,138.04,31.62,24.65,36.43,0.04,-272.75,-272.75,-47,566,-936,25.3,3.4,-21.4,25.6,3.5,-21.0,5.73,2.41,-23.5,30.6
2012-11-15 01:28:00,0.0,1.9203,0.0010,400.28,0.20,226.8,30.3,138.04,31.62,24.65,36.43,0.04,-272.75,-272.75,-47,566,-936,25.3,3.4,-21.3,25.6,3.5,-21.0,5.73,2.30,-23.5,30.6
2012-11-15 01:29:00,0.0,1.9201,0.0008,400.28,0.18,223.2,33.4,138.04,31.63,24.65,36.43,0.04,-272.75,-272.75,-47,567,-936,25.3,3.4,-21.4,25.6,3.5,-21.0,5.73,2.33,-23.5,30.6
2012-11-15 01:30:00,0.0,1.9199,0.0009,400.20,0.20,222.8,32.9,138.04,31.63,24.65,36.43,0.04,-272.75,-272.74,-48,567,-936,25.3,3.4,-21.4,25.6,3.5,-21.0,5.73,2.41,-23.5,30.6
2012-11-15 01:31:00,0.0,1.9195,0.0009,400.33,0.21,220.0,27.8,138.04,31.63,24.65,36.42,0.04,-272.75,-272.75,-47,566,-936,25.3,3.4,-21.4,25.5,3.5,-21.0,5.73,2.33,-23.6,30.5
2012-11-15 01:32:00,0.0,1.9194,0.0012,400.26,0.20,219.8,33.5,138.04,31.63,24.65,36.43,0.04,-272.75,-272.75,-47,566,-936,25.2,3.5,-21.4,25.5,3.5,-21.1,5.73,2.30,-23.6,30.6
2012-11-15 01:33:00,0.0,1.9194,0.0010,400.24,0.19,217.0,29.8,138.04,31.63,24.65,36.43,0.04,-272.75,-272.75,-47,566,-936,25.2,3.4,-21.4,25.5,3.5,-21.1,5.73,2.40,-23.6,30.6
2012-11-15 01:34:00,0.0,1.9189,0.0010,400.14,0.21,220.8,29.7,138.04,31.62,24.65,36.43,0.04,-272.75,-272.75,-48,566,-936,25.2,3.4,-21.4,25.5,3.5,-21.1,5.73,2.37,-23.6,30.6
2012-11-15 01:35:00,0.0,1.9190,0.0008,400.30,0.19,216.9,30.1,138.04,31.62,24.65,36.43,0.04,-272.75,-272.75,-47,566,-936,25.3,3.4,-21.5,25.5,3.5,-21.1,5.73,2.28,-23.6,30.6
2012-11-15 01:36:00,0.0,1.9189,0.0009,400.31,0.21,212.2,35.6,138.04,31.62,24.65,36.42,0.04,-272.75,-272.75,-47,566,-936,25.3,3.4,-21.5,25.5,3.5,-21.2,5.73,2.38,-23.5,30.7
2012-11-15 01:37:00,0.0,1.9188,0.0008,400.19,0.19,228.2,28.1,138.04,31.62,24.65,36.43,0.04,-272.74,-272.75,-47,566,-936,25.3,3.4,-21.6,25.6,3.4,-21.2,5.73,2.38,-23.5,30.7
2012-11-15 01:38:00,0.0,1.9186,0.0010,400.20,0.19,219.0,28.8,138.04,31.63,24.66,36.43,0.04,-272.75,-272.75,-48,566,-936,25.3,3.4,-21.6,25.6,3.4,-21.3,5.73,2.28,-23.5,30.7
2012-11-15 01:39:00,0.0,1.9183,0.0013,400.26,0.24,226.5,31.8,138.04,31.63,24.66,36.42,0.04,-272.75,-272.75,-47,566,-936,25.3,3.4,-21.6,25.6,3.4,-21.3,5.73,2.39,-23.5,30.7
2012-11-15 01:40:00,0.0,1.9186,0.0010,400.24,0.17,226.6,27.9,138.04,31.63,24.65,36.43,0.04,-272.75,-272.74,-47,566,-936,25.3,3.4,-21.7,25.6,3.4,-21.3,5.73,2.38,-23.5,30.7
2012-11-15 01:41:00,0.0,1.9192,0.0008,400.32,0.21,224.7,33.4,138.04,31.63,24.65,36.42,0.04,-272.75,-272.75,-47,566,-936,25.3,3.3,-21.7,25.6,3.4,-21.4,5.73,2.29,-23.5,30.6
2012-11-15 01:42:00,0.0,1.9188,0.0008,400.20,0.20,217.9,25.1,138.04,31.63,24.65,36.43,0.04,-272.75,-272.75,-48,566,-936,25.3,3.3,-21.8,25.5,3.4,-21.4,5.73,2.35,-23.5,30.6
2012-11-15 01:43:00,0.0,1.9187,0.0008,400.24,0.20,219.0,31.3,138.04,31.63,24.65,36.43,0.04,-272.75,-272.75,-47,566,-936,25.3,3.3,-21.8,25.5,3.4,-21.4,5.73,2.41,-23.6,30.6
2012-11-15 01:44:00,0.0,1.9188,0.0008,400.32,0.26,220.4,31.2,138.04,31.63,24.65,36.42,0.04,-272.74,-272.75,-47,566,-936,25.2,3.3,-21.8,25.5,3.4,-21.4,5.73,2.33,-23.6,30.5
2012-11-15 01:45:00,0.0,1.9192,0.0010,400.28,0.23,212.2,30.6,138.04,31.63,24.65,36.42,0.04,-272.75,-272.75,-47,566,-936,25.2,3.3,-21.8,25.5,3.4,-21.4,5.73,2.30,-23.6,30.5
2012-11-15 01:46:00,0.0,1.9191,0.0009,400.19,0.19,216.3,30.1,138.04,31.63,24.65,36.43,0.04,-272.75,-272.75,-47,566,-936,25.2,3.4,-21.7,25.5,3.4,-21.4,5.73,2.38,-23.6,30.5
2012-11-15 01:47:00,0.0,1.9192,0.0009,400.20,0.19,212.2,25.4,138.04,31.63,24.65,36.43,0.04,-272.75,-272.74,-47,566,-936,25.1,3.4,-21.7,25.5,3.4,-21.4,5.73,2.40,-23.7,30.5
2012-11-15 01:48:00,0.0,1.9191,0.0009,400.28,0.16,212.2,31.4,138.04,31.63,24.65,36.43,0.04,-272.75,-272.75,-47,566,-936,25.1,3.4,-21.8,25.5,3.4,-21.4,5.73,2.29,-23.7,30.6
2012-11-15 01:49:00,0.0,1.9186,0.0011,400.22,0.20,215.1,31.0,138.04,31.63,24.65,36.43,0.04,-272.75,-272.75,-47,566,-936,25.1,3.3,-21.9,25.5,3.4,-21.5,5.73,2.35,-23.6,30.6
2012-11-15 01:50:00,0.0,1.9188,0.0011,400.34,0.20,218.0,33.3,138.04,31.63,24.65,36.42,0.04,-272.75,-272.75,-47,566,-936,25.2,3.3,-21.8,25.5,3.4,-21.5,5.73,2.41,-23.6,30.6
2012-11-15 01:51:00,0.0,1.9190,0.0009,400.34,0.18,215.6,32.2,138.04,31.63,24.65,36.42,0.04,-272.74,-272.75,-47,566,-936,25.2,3.3,-21.8,25.5,3.4,-21.5,5.73,2.30,-23.6,30.6
2012-11-15 01:52:00,0.0,1.9188,0.0010,400.35,0.17,219.0,28.7,138.04,31.63,24.66,36.42,0.04,-272.75,-272.75,-47,566,-936,25.2,3.3,-21.9,25.5,3.4,-21.6,5.73,2.33,-23.6,30.6
2012-11-15 01:53:00,0.0,1.9192,0.0008,400.30,0.19,220.3,31.2,138.04,31.63,24.66,36.42,0.04,-272.75,-272.75,-47,566,-936,25.2,3.3,-21.9,25.5,3.3,-21.6,5.73,2.41,-23.5,30.6
2012-11-15 01:54:00,0.0,1.9184,0.0010,400.36,0.17,222.9,30.4,138.04,31.63,24.65,36.42,0.04,-272.75,-272.75,-47,566,-936,25.3,3.3,-21.9,25.5,3.3,-21.6,5.73,2.30,-23.5,30.7
2012-11-15 01:55:00,0.0,1.9187,0.0009,400.29,0.20,229.8,31.2,138.04,31.63,24.65,36.43,0.04,-272.75,-272.75,-47,566,-936,25.3,3.3,-21.9,25.5,3.3,-21.6,5.73,2.33,-23.5,30.7
2012-11-15 01:56:00,0.0,1.9185,0.0010,400.32,0.21,232.3,33.2,138.04,31.63,24.65,36.42,0.04,-272.75,-272.75,-47,566,-936,25.3,3.3,-21.9,25.5,3.3,-21.6,5.73,2.42,-23.5,30.7
2012-11-15 01:57:00,0.0,1.9189,0.0010,400.40,0.18,232.1,28.7,138.04,31.64,24.65,36.42,0.04,-272.75,-272.74,-47,566,-936,25.3,3.3,-21.9,25.6,3.3,-21.6,5.73,2.29,-23.5,30.7
2012-11-15 01:58:00,0.0,1.9183,0.0009,400.31,0.21,230.1,32.0,138.03,31.64,24.66,36.43,0.04,-272.75,-272.75,-47,566,-936,25.3,3.3,-22.0,25.6,3.3,-21.6,5.73,2.33,-23.4,30.7
2012-11-15 01:59:00,0.0,1.9195,0.0010,400.39,0.18,229.8,36.1,138.04,31.64,24.65,36.43,0.04,-272.75,-272.75,-47,566,-936,25.4,3.3,-21.9,25.6,3.3,-21.6,5.73,2.40,-23.4,30.7
2012-11-15 02:00:00,0.0,1.9195,0.0010,400.39,0.18,229.6,26.7,138.04,31.64,24.65,36.43,0.04,-272.75,-272.75,-47,566,-936,25.4,3.3,-21.8,25.6,3.3,-21.5,5.73,2.29,-23.4,30.7
2012-11-15 02:01:00,0.0,1.9194,0.0010,400.32,0.22,246.0,31.2,138.03,31.65,24.66,36.43,0.04,-272.75,-272.75,-48,567,-936,25.5,3.3,-21.8,25.7,3.3,-21.5,5.73,2.34,-23.4,30.8
2012-11-15 02:02:00,0.0,1.9194,0.0010,400.36,0.20,231.7,32.0,138.03,31.65,24.66,36.43,0.04,-272.75,-272.75,-47,567,-936,25.5,3.3,-21.8,25.7,3.3,-21.5,5.73,2.40,-23.4,30.8
2012-11-15 02:03:00,0.0,1.9197,0.0011,400.48,0.22,233.0,36.8,138.03,31.65,24.65,36.42,0.04,-272.75,-272.75,-47,567,-936,25.5,3.3,-21.8,25.6,3.3,-21.5,5.73,2.30,-23.4,30.7
2012-11-15 02:04:00,0.0,1.9195,0.0009,400.46,0.24,230.8,33.1,138.04,31.65,24.65,36.43,0.04,-272.75,-272.75,-47,567,-936,25.5,3.3,-21.8,25.7,3.3,-21.5,5.73,2.33,-23.4,30.7
2012-11-15 02:05:00,0.0,1.9190,0.0010,400.39,0.13,223.8,28.8,138.04,31.65,24.66,36.43,0.04,-272.75,-272.75,-48,567,-936,25.4,3.3,-21.9,25.6,3.3,-21.5,5.73,2.40,-23.5,30.7
2012-11-15 02:06:00,0.0,1.9195,0.0010,400.48,0.18,221.8,34.1,138.04,31.65,24.65,36.43,0.04,-272.75,-272.75,-47,567,-936,25.4,3.3,-21.9,25.6,3.3,-21.5,5.73,2.35,-23.5,30.6
2012-11-15 02:07:00,0.0,1.9194,0.0008,400.47,0.19,220.6,31.3,138.04,31.65,24.65,36.42,0.04,-272.75,-272.75,-47,567,-936,25.3,3.3,-21.9,25.6,3.4,-21.5,5.73,2.29,-23.6,30.6
2012-11-15 02:08:00,0.0,1.9200,0.0009,400.56,0.18,214.2,29.1,138.04,31.65,24.65,36.42,0.04,-272.75,-272.75,-47,567,-936,25.3,3.3,-21.9,25.5,3.3,-21.6,5.73,2.36,-23.6,30.6
2012-11-15 02:09:00,0.0,1.9200,0.0008,400.43,0.18,221.5,29.5,138.04,31.65,24.65,36.43,0.04,-272.75,-272.75,-47,567,-936,25.3,3.3,-21.9,25.5,3.3,-21.6,5.73,2.41,-23.6,30.5
2012-11-15 02:10:00,0.0,1.9196,0.0010,400.47,0.21,218.6,30.1,138.04,31.64,24.66,36.42,0.04,-272.75,-272.75,-48,566,-936,25.2,3.3,-21.9,25.5,3.3,-21.6,5.73,2.33,-23.7,30.5
2012-11-15 02:11:00,0.0,1.9195,0.0010,400.52,0.21,215.3,38.2,138.04,31.64,24.66,36.42,0.04,-272.75,-272.75,-47,566,-936,25.2,3.3,-21.9,25.5,3.3,-21.6,5.73,2.30,-23.7,30.6
2012-11-15 02:12:00,0.0,1.9194,0.0009,400.42,0.20,217.2,26.5,138.04,31.64,24.66,36.42,0.04,-272.75,-272.75,-47,566,-936,25.2,3.3,-21.9,25.5,3.3,-21.6,5.73,2.41,-23.7,30.6
2012-11-15 02:13:00,0.0,1.9199,0.0009,400.46,0.20,205.8,29.0,138.04,31.64,24.65,36.42,0.04,-272.74,-272.75,-47,566,-936,25.2,3.3,-21.9,25.5,3.3,-21.6,5.73,2.36,-23.7,30.6
2012-11-15 02:14:00,0.0,1.9198,0.0009,400.47,0.18,219.9,27.1,138.04,31.64,24.65,36.42,0.04,-272.75,-272.75,-47,566,-936,25.2,3.3,-21.9,25.5,3.3,-21.6,5.73,2.29,-23.7,30.6
2012-11-15 02:15:00,0.0,1.9197,0.0010,400.42,0.16,219.4,30.0,138.04,31.64,24.65,36.43,0.04,-272.75,-272.75,-47,566,-936,25.2,3.3,-21.9,25.5,3.3,-21.6,5.73,2.40,-23.7,30.6
2012-11-15 02:16:00,0.0,1.9197,0.0009,400.32,0.20,221.7,30.7,138.04,31.64,24.65,36.43,0.04,-272.75,-272.75,-47,566,-936,25.2,3.3,-21.9,25.5,3.3,-21.6,5.73,2.36,-23.6,30.6